User: anonymous   Login
Location: Nitra
(0.0000°N, 18.0833°E)
Time: 22:21:29
(UTC+02:00)
Language:

ITAMSAT 1 - Orbit

View from above orbital plane
View from above orbital plane
View from above satellite
View from above satellite

Ground track
Ground track

The orbit data is extracted from the following two-line orbital elements,

1 22826U 93061D   24151.12547554  .00000218  00000-0  10038-3 0  9991
2 22826  98.7840 203.5746 0009994 114.5360 245.6866 14.30877639600311
Epoch (UTC): 30 May 2024 03:00:41
Eccentricity: 0.0009994
inclination: 98.7840°
perigee height: 781 km
apogee height: 796 km
right ascension of ascending node: 203.5746°
argument of perigee: 114.5360°
revolutions per day: 14.30877639
mean anomaly at epoch: 245.6866°
orbit number at epoch: 60031

The dashed part of the orbit path shows where the satellite is in the earth's shadow,  

DLR